Vertical_Velocity
-0 -5 -2 -3 -2 -1 -1 0 -0 -2 -2 2 -2 -1 -6 -1 2 1 -1 -1 -1 -3 5 5 4 3 1 0 -0 1 0 -1 -2 -1 -1 0 -0 0 -0 -0 -0 0 0 -0
-6 -2 -2 -1 -0 -1 0 0 -3 -4 -0 1 -1 -6 -6 -1 -3 -1 -0 -0 -2 2 1 0 0 1 0 2 2 0 0 -1 0 -1 1 1 1 1 -0 1 -1 1 -2 -2
-3 -2 -0 -1 1 1 -0 -1 -1 -2 -1 -1 1 -5 -3 -3 0 -0 -1 -0 2 -1 1 -0 -2 -1 2 -1 0 1 2 2 0 0 -1 0 1 -0 1 1 -2 1 1 1
-2 -0 -1 0 -0 -3 1 -1 -0 0 -2 -4 -2 -9 -4 -2 -3 0 -1 -0 1 -0 -0 4 1 -1 -2 3 3 3 1 2 1 1 -1 1 1 1 2 1 -2 1 2 -1
-13 0 1 1 -6 -1 -7 -1 -0 -0 -0 -1 -1 -1 -17 0 -3 -2 -1 -1 0 2 1 -0 -1 7 3 3 3 3 1 1 1 0 0 0 -1 0 0 -0 -1 -1 -1 -3
-3 0 -1 -6 0 -1 -0 -1 -2 -1 -1 -2 -3 -5 -9 -2 -1 -2 -0 0 3 2 0 1 2 4 5 3 1 0 2 1 2 2 1 0 1 0 0 2 -1 0 1 -1
-2 -1 -0 -1 -1 -1 -1 -4 -4 -6 -4 -7 -0 1 -14 -1 -1 0 -0 1 6 4 4 4 4 2 2 1 2 3 2 2 2 2 1 1 0 1 -0 1 0 1 1 3
-1 -13 -2 -1 -4 -8 -2 -5 -7 -2 -2 -4 -0 -5 -14 -0 1 2 3 4 2 0 1 -1 -1 -1 1 3 3 3 3 2 2 1 -0 -0 1 1 2 1 2 2 2 3
-1 -6 1 -0 -0 -4 -2 -1 -5 -2 -0 -1 -5 -9 -4 0 -1 -1 1 1 2 3 3 1 3 7 7 -2 2 5 3 2 1 2 2 2 2 1 2 2 0 1 2 2
-3 -4 -1 1 -1 0 -5 -5 -8 -3 -2 -0 -4 -2 -7 1 0 0 0 2 2 3 2 2 4 4 8 -6 -1 1 6 5 3 3 3 3 3 3 1 0 -1 -1 -2 -1
-1 -4 -4 -2 -2 -6 -2 0 1 -3 -3 -2 -1 -10 -3 -3 -1 -1 1 1 1 4 3 2 1 -2 1 5 -0 -0 4 2 3 2 3 3 4 5 5 5 3 -0 1 1
-3 -4 -0 -12 -3 -1 -2 -4 -4 0 -5 -1 0 -19 -0 -0 -0 -2 1 1 1 -1 2 3 3 3 1 -0 0 1 1 -0 -1 -0 -1 -1 -0 0 1 3 3 2 1 -1
-4 -3 -2 -13 -3 -1 0 -0 -1 -0 -1 -6 5 -14 1 1 0 2 -1 1 1 1 0 1 -2 1 1 -3 -3 1 1 -3 -1 1 1 -0 -0 1 1 -0 1 2 1 2
1 0 -1 -6 -9 -3 1 1 0 -3 2 -3 -12 -7 3 1 -0 2 3 1 1 2 2 4 -2 1 1 -1 2 0 5 6 3 2 0 -1 2 -4 -0 2 1 0 2 0
-1 1 2 -4 -1 1 1 0 -1 3 -9 5 -22 0 -3 -3 -3 -1 -0 2 1 -1 0 2 0 1 -2 -1 1 0 -2 -7 -4 -2 1 -2 -0 -4 -1 -1 -0 -3 -1 -2
0 -3 1 -6 -1 2 1 -2 0 -0 -3 3 4 -12 -1 4 -0 1 1 -1 1 2 -0 -0 -1 1 3 2 1 -0 0 -1 -3 -2 1 3 -3 2 3 4 3 2 2 -0
-0 0 2 -10 0 2 9 -13 -3 -1 0 -4 3 -16 0 4 1 1 2 0 0 0 1 0 1 -2 -2 -3 -2 -3 1 -1 -4 -3 -2 -3 -1 -0 -1 -1 1 2 -2 -1
1 2 1 -4 4 7 -16 0 1 -1 -0 1 1 2 -1 -1 3 1 3 0 0 -0 0 -1 -2 -2 1 0 -3 -2 0 -2 -0 -1 -3 -2 -2 0 -2 0 0 -0 0 -1
3 3 1 3 -0 -11 -0 0 -1 -2 -1 1 -1 2 3 3 -3 5 2 -1 5 2 2 2 1 -1 -1 -1 -1 0 -1 -4 -2 -0 -2 -1 3 -2 -1 -1 1 -1 -1 -1
3 5 10 4 6 -1 -0 1 1 1 -1 1 -3 1 -1 1 0 4 1 -0 -2 -1 -0 0 1 1 1 2 2 -1 -0 -0 -3 -3 -1 -3 -1 -3 -1 1 1 -2 -1 -2
1 1 -2 -1 -0 1 1 1 0 9 1 2 -1 -1 -0 -1 -0 1 -2 -2 -3 -2 -2 -3 -3 -3 -1 -1 -5 -1 -3 -2 -4 -2 -4 -2 -2 2 2 -2 -0 -2 -1 0
-2 1 -1 3 4 -2 2 -1 -3 6 3 3 3 2 -1 0 2 1 0 0 -1 0 1 0 -4 -5 1 1 -2 -2 0 2 -0 -3 -3 -0 2 1 -1 -1 -2 -2 -1 -0
2 4 5 2 2 2 5 4 9 1 -0 -0 -1 1 2 -1 -0 -2 -1 1 -0 -3 -5 -1 3 -4 1 -1 -1 -3 1 -1 0 -0 -2 1 -4 1 0 -1 -2 -3 -2 0
1 0 -1 2 2 2 3 6 -0 2 -5 -1 -1 3 3 -1 -0 1 -2 -2 -2 1 -3 -1 -1 -2 -6 -2 -1 1 0 3 -2 -4 -1 -1 0 -1 -2 -1 0 1 -0 -1
5 -4 2 3 1 -0 -1 0 0 -1 1 1 2 1 -1 -2 -4 -2 3 -2 -3 -1 -0 -2 -4 -4 -2 -1 -1 3 1 -0 -2 -2 -1 -2 -1 -2 -3 -1 -1 -1 -1 2
3 4 1 3 3 2 4 4 2 1 2 0 -1 -2 -2 0 -1 -3 -1 4 1 -3 -2 -1 -1 0 2 2 -4 0 0 -1 -1 -1 -0 -1 -2 -1 -1 -2 -8 3 3 -1
Height
1498 1504 1507 1500 1501 1500 1502 1506 1508 1501 1494 1496 1495 1488 1469 1462 1463 1459 1459 1463 1466 1469 1475 1479 1482 1486 1489 1492 1494 1496 1498 1499 1500 1502 1502 1502 1503 1504 1505 1505 1505 1505 1504 1504
1503 1504 1496 1496 1498 1500 1503 1506 1507 1498 1494 1496 1492 1486 1467 1459 1456 1453 1453 1456 1460 1465 1470 1475 1479 1482 1484 1488 1491 1493 1495 1497 1498 1499 1501 1501 1502 1503 1503 1503 1504 1504 1503 1503
1502 1494 1494 1495 1498 1501 1503 1504 1502 1499 1498 1495 1496 1487 1470 1456 1454 1452 1452 1452 1455 1459 1464 1469 1472 1476 1481 1484 1487 1490 1492 1494 1496 1497 1498 1499 1500 1500 1501 1502 1502 1502 1501 1501
1497 1493 1494 1496 1498 1500 1501 1494 1494 1497 1503 1507 1494 1498 1475 1459 1457 1452 1450 1451 1452 1455 1460 1466 1470 1473 1477 1481 1485 1488 1490 1492 1494 1495 1496 1497 1498 1498 1499 1499 1499 1500 1499 1498
1492 1494 1495 1497 1494 1494 1494 1492 1495 1497 1504 1506 1501 1508 1476 1461 1454 1450 1448 1449 1451 1454 1458 1463 1467 1472 1475 1480 1483 1485 1487 1489 1490 1492 1493 1494 1495 1496 1496 1497 1496 1496 1496 1496
1491 1490 1490 1488 1488 1490 1492 1494 1501 1508 1511 1514 1492 1499 1478 1461 1455 1452 1449 1449 1452 1454 1458 1462 1465 1469 1474 1478 1481 1483 1484 1486 1488 1489 1490 1491 1491 1492 1493 1493 1493 1494 1493 1493
1489 1488 1485 1485 1488 1490 1492 1500 1511 1508 1513 1497 1493 1497 1467 1454 1457 1454 1452 1451 1453 1455 1459 1462 1465 1468 1472 1476 1479 1481 1482 1484 1486 1487 1487 1488 1488 1489 1489 1490 1490 1491 1490 1490
1498 1497 1484 1482 1482 1486 1494 1496 1506 1500 1498 1490 1490 1482 1457 1455 1455 1455 1454 1453 1453 1456 1458 1461 1465 1467 1472 1476 1479 1480 1480 1481 1483 1484 1484 1485 1485 1485 1485 1486 1486 1486 1487 1487
1499 1492 1479 1480 1480 1482 1490 1496 1489 1493 1499 1503 1480 1468 1455 1456 1457 1458 1458 1456 1458 1459 1460 1461 1464 1467 1468 1472 1478 1479 1480 1479 1480 1481 1481 1482 1481 1481 1482 1482 1483 1484 1484 1485
1479 1489 1478 1480 1481 1484 1485 1486 1495 1503 1497 1493 1478 1473 1459 1455 1457 1459 1461 1462 1462 1462 1462 1464 1464 1467 1469 1470 1475 1478 1478 1477 1477 1478 1479 1479 1478 1478 1477 1478 1479 1479 1480 1481
1477 1484 1481 1481 1482 1480 1490 1489 1488 1489 1488 1488 1483 1461 1450 1451 1454 1459 1461 1461 1462 1463 1463 1464 1466 1467 1469 1469 1472 1477 1476 1476 1476 1477 1477 1477 1477 1477 1476 1475 1474 1475 1475 1476
1474 1483 1485 1476 1467 1468 1470 1472 1473 1474 1484 1483 1480 1447 1450 1451 1453 1455 1459 1461 1462 1464 1466 1466 1467 1467 1466 1469 1470 1473 1471 1472 1473 1473 1473 1474 1475 1475 1475 1474 1472 1471 1470 1470
1472 1480 1485 1471 1470 1468 1467 1467 1465 1466 1470 1466 1468 1444 1453 1455 1457 1460 1461 1463 1465 1465 1467 1467 1466 1468 1466 1469 1471 1472 1469 1470 1471 1471 1471 1471 1471 1471 1471 1470 1469 1467 1467 1467
1466 1471 1468 1463 1455 1460 1466 1461 1459 1459 1464 1456 1441 1438 1453 1454 1456 1460 1462 1462 1465 1465 1467 1465 1465 1469 1467 1469 1469 1468 1468 1468 1468 1468 1468 1468 1467 1467 1467 1465 1465 1466 1465 1464
1464 1461 1467 1451 1453 1456 1451 1450 1450 1452 1449 1448 1425 1433 1431 1438 1446 1454 1459 1461 1464 1465 1467 1467 1466 1467 1466 1467 1467 1466 1465 1466 1467 1467 1466 1464 1464 1464 1464 1462 1460 1461 1461 1460
1461 1460 1459 1449 1450 1451 1447 1433 1437 1435 1432 1434 1431 1419 1434 1444 1449 1453 1456 1459 1463 1465 1466 1466 1466 1466 1465 1464 1464 1464 1463 1463 1464 1465 1465 1462 1462 1462 1460 1459 1456 1456 1455 1455
1457 1455 1453 1436 1440 1440 1433 1417 1419 1417 1415 1417 1420 1414 1435 1444 1449 1453 1456 1458 1461 1463 1463 1463 1463 1463 1464 1464 1464 1463 1462 1460 1459 1460 1460 1460 1459 1457 1455 1455 1453 1451 1450 1449
1440 1447 1444 1427 1435 1421 1402 1420 1419 1415 1424 1424 1427 1430 1436 1441 1448 1453 1456 1458 1459 1462 1462 1462 1462 1462 1462 1460 1460 1460 1459 1458 1457 1455 1456 1456 1455 1452 1451 1449 1448 1445 1444 1443
1426 1429 1424 1421 1415 1400 1403 1419 1422 1418 1426 1432 1433 1437 1439 1444 1448 1456 1457 1460 1462 1460 1461 1461 1460 1460 1460 1459 1457 1455 1453 1454 1454 1452 1452 1452 1449 1446 1445 1444 1441 1439 1438 1436
1415 1415 1419 1412 1405 1394 1416 1426 1426 1425 1420 1434 1434 1441 1446 1448 1448 1456 1458 1460 1461 1462 1462 1461 1460 1460 1459 1457 1455 1452 1450 1449 1449 1449 1448 1446 1445 1442 1440 1436 1434 1431 1431 1429
1413 1411 1406 1401 1396 1400 1434 1430 1428 1418 1421 1436 1434 1438 1443 1446 1451 1455 1456 1458 1459 1459 1459 1459 1460 1459 1457 1454 1453 1451 1448 1446 1445 1444 1442 1441 1439 1436 1431 1429 1427 1425 1424 1422
1407 1406 1399 1398 1389 1387 1435 1432 1432 1448 1445 1445 1443 1444 1446 1450 1451 1452 1456 1457 1458 1457 1456 1454 1456 1454 1455 1451 1448 1447 1446 1442 1439 1437 1436 1435 1432 1428 1423 1421 1419 1418 1416 1414
1413 1432 1423 1433 1443 1450 1448 1447 1446 1446 1446 1452 1453 1454 1450 1449 1450 1451 1455 1455 1453 1453 1454 1453 1450 1449 1449 1447 1445 1443 1440 1436 1432 1429 1428 1425 1424 1420 1417 1414 1412 1410 1409 1407
1433 1437 1435 1440 1457 1454 1455 1451 1450 1452 1452 1458 1458 1457 1452 1450 1452 1452 1451 1453 1452 1450 1449 1448 1445 1443 1443 1443 1439 1437 1433 1429 1425 1423 1420 1419 1415 1412 1410 1408 1406 1403 1401 1398
1459 1449 1450 1456 1460 1459 1457 1458 1459 1461 1460 1459 1457 1455 1453 1453 1453 1454 1449 1450 1450 1448 1444 1442 1440 1439 1437 1435 1433 1431 1427 1421 1419 1416 1413 1410 1407 1404 1402 1400 1398 1396 1393 1392
1472 1472 1465 1462 1463 1462 1465 1465 1464 1462 1459 1456 1456 1456 1456 1454 1452 1449 1449 1447 1444 1442 1441 1437 1436 1432 1430 1428 1426 1424 1419 1415 1412 1408 1405 1402 1399 1397 1394 1392 1389 1389 1386 1385